Home   Weather   Wellingborough   Past weeks
Flag for United Kingdom

Past Weather in Wellingborough, England, United Kingdom — Yesterday and Last 2 Weeks

Now
55 °F

Cool.


Feels Like: 53 °F
Forecast: 65 / 44 °F
Wind: 7 mph from North

Location: Bedford

Current Time: May 20, 2019 at 11:44:18 pm

Latest Report: May 20, 2019 at 11:00 pm


Visibility: 31 mi

Pressure: 30.00 "Hg

Humidity: 74%

Dew Point: 47 °F

Location of WellingboroughLocation

Past Weather in Wellingborough — Graph

°F

Wellingborough Temperature Yesterday

Maximum temperature yesterday: 63 °F (at 3:00 pm)
Minimum temperature yesterday: 42 °F (at 6:00 am)
Average temperature yesterday: 54 °F

High & Low Weather Summary for the Past Weeks

 TemperatureHumidityPressure
High65 °F (May 20, 4:00 pm)99% (May 19, 7:00 am)30.23 "Hg (May 19, 7:00 am)
Low38 °F (May 6, 3:00 am)46% (May 6, 6:00 pm)29.70 "Hg (May 18, 5:00 am)
Average52 °F78%29.93 "Hg
* Reported May 5 10:00 pm — May 20 10:00 pm, Wellingborough. Weather by CustomWeather, © 2019

Note: Actual official high and low records may vary slightly from our data, if they occured in-between our weather recording intervals... More about our weather records

Advertising

Wellingborough Weather History for the Previous 24 Hours

Scroll right to see more
 ConditionsComfort  
Time TempWeatherWind HumidityBarometerVisibility
10:00 pm
Mon, May 20
58 °FCool.7 mph67%29.97 "Hg31 mi
9:00 pm61 °FCool.5 mph63%29.95 "Hg31 mi
8:00 pm62 °FRefreshingly cool.3 mph57%29.94 "Hg31 mi
7:00 pm64 °FMild.8 mph53%29.93 "Hg28 mi
6:00 pm65 °FMild.9 mph52%29.93 "Hg22 mi
5:00 pm65 °FMild.9 mph52%29.92 "Hg28 mi
4:00 pm65 °FMild.10 mph53%29.92 "Hg19 mi
3:00 pm65 °FMild.7 mph48%29.91 "Hg31 mi
2:00 pm64 °FMild.9 mph50%29.91 "Hg31 mi
1:00 pm64 °FMild.9 mph56%29.91 "Hg28 mi
12:00 pm63 °FMild.9 mph58%29.91 "Hg11 mi
11:00 am61 °FCool.8 mph65%29.91 "Hg25 mi
10:00 am58 °FCool.9 mph74%29.91 "Hg19 mi
9:00 am54 °FCool.7 mph81%29.91 "Hg11 mi
8:00 am52 °FCool.7 mph84%29.90 "Hg17 mi
7:00 am50 °FCool.7 mph89%29.88 "Hg14 mi
6:00 am50 °FCool.8 mph88%29.88 "Hg16 mi
5:00 am51 °FCool.7 mph89%29.87 "Hg11 mi
4:00 am53 °FSmoke.5 mph91%29.86 "Hg5 mi
3:00 am53 °FSmoke.5 mph88%29.87 "Hg6 mi
2:00 am53 °FCool.3 mph87%29.87 "Hg7 mi
1:00 am54 °FCool.5 mph86%29.88 "Hg8 mi
12:00 am54 °FCool.6 mph86%29.88 "Hg10 mi
11:00 pm
Sun, May 19
55 °FCool.6 mph84%29.87 "Hg9 mi
Weather by CustomWeather, © 2019

See weather overview